When you browse on this site, cookies collect data to enhance your experience and personalize the content and advertising you see.
Visit our Privacy Policy to learn more. By continuing to use the site, you agree to this use of cookies and data.
  • In Deutschland
  • Länderverzeichnis
  • Für 7 Tage
  • Wassertemperatur
  • Satellitenkarten
  • Wetterkarte
  • Widgets
  • user-avatar
    Anmelden

    Stündliche Wetter Molepolole

    Heute, 17 November, Samstag

    Zeit Temperatur Niederschläge Wind Luftdruck Luftfeuchtigkeit
    00:00 +28°C° 0 mm 3 m/S 666 mmHg 22%
    01:00 +27°C° 0 mm 4 m/S 666 mmHg 24%
    02:00 +27°C° 0 mm 4 m/S 665 mmHg 26%
    03:00 +26°C° 0 mm 3 m/S 665 mmHg 28%
    04:00 +25°C° 0 mm 3 m/S 665 mmHg 31%
    05:00 +24°C° 0 mm 3 m/S 665 mmHg 33%
    06:00 +26°C° 0 mm 3 m/S 666 mmHg 32%
    07:00 +27°C° 0 mm 3 m/S 667 mmHg 30%
    08:00 +28°C° 0 mm 3 m/S 667 mmHg 28%
    09:00 +30°C° 0 mm 3 m/S 667 mmHg 25%
    10:00 +33°C° 0 mm 3 m/S 668 mmHg 21%
    11:00 +35°C° 0 mm 3 m/S 668 mmHg 18%
    12:00 +37°C° 0 mm 2 m/S 667 mmHg 16%
    13:00 +38°C° 0 mm 2 m/S 667 mmHg 14%
    14:00 +39°C° 0 mm 2 m/S 666 mmHg 12%
    15:00 +39°C° 0 mm 2 m/S 666 mmHg 12%
    16:00 +39°C° 0 mm 2 m/S 665 mmHg 12%
    17:00 +39°C° 0 mm 2 m/S 665 mmHg 12%
    18:00 +37°C° 0 mm 2 m/S 665 mmHg 13%
    19:00 +35°C° 0 mm 2 m/S 665 mmHg 15%
    20:00 +34°C° 0 mm 2 m/S 664 mmHg 17%
    21:00 +32°C° 0 mm 2 m/S 665 mmHg 18%
    22:00 +31°C° 0 mm 2 m/S 665 mmHg 18%
    23:00 +30°C° 0 mm 2 m/S 665 mmHg 19%

    Morgen, 18 November, Sonntag

    Zeit Temperatur Niederschläge Wind Luftdruck Luftfeuchtigkeit
    00:00 +30°C° 0 mm 3 m/S 665 mmHg 20%
    01:00 +29°C° 0 mm 3 m/S 665 mmHg 21%
    02:00 +29°C° 0 mm 4 m/S 664 mmHg 22%
    03:00 +28°C° 0 mm 4 m/S 664 mmHg 24%
    04:00 +27°C° 0 mm 3 m/S 664 mmHg 25%
    05:00 +27°C° 0 mm 3 m/S 664 mmHg 26%
    06:00 +28°C° 0 mm 4 m/S 665 mmHg 24%
    07:00 +29°C° 0 mm 5 m/S 665 mmHg 23%
    08:00 +30°C° 0 mm 5 m/S 666 mmHg 21%
    09:00 +33°C° 0 mm 5 m/S 666 mmHg 19%
    10:00 +35°C° 0 mm 5 m/S 667 mmHg 17%
    11:00 +37°C° 0 mm 5 m/S 667 mmHg 15%
    12:00 +39°C° 0 mm 5 m/S 666 mmHg 14%
    13:00 +40°C° 0 mm 4 m/S 666 mmHg 13%
    14:00 +41°C° 0 mm 4 m/S 665 mmHg 12%
    15:00 +40°C° 0 mm 4 m/S 665 mmHg 12%
    16:00 +39°C° 0 mm 3 m/S 664 mmHg 12%
    17:00 +39°C° 0 mm 3 m/S 664 mmHg 12%
    18:00 +38°C° 0 mm 3 m/S 664 mmHg 14%
    19:00 +36°C° 0 mm 3 m/S 664 mmHg 16%
    20:00 +35°C° 0 mm 2 m/S 664 mmHg 17%
    21:00 +34°C° 0 mm 4 m/S 664 mmHg 20%
    22:00 +33°C° 0 mm 5 m/S 665 mmHg 22%
    23:00 +32°C° 0 mm 6 m/S 665 mmHg 25%

    übermorgen, 19 November, Montag

    Zeit Temperatur Niederschläge Wind Luftdruck Luftfeuchtigkeit
    00:00 +30°C° 0 mm 6 m/S 665 mmHg 29%
    01:00 +29°C° 0 mm 6 m/S 664 mmHg 34%
    02:00 +28°C° 0 mm 7 m/S 664 mmHg 38%
    03:00 +27°C° 0 mm 7 m/S 664 mmHg 41%
    04:00 +26°C° 0 mm 7 m/S 664 mmHg 45%
    05:00 +24°C° 0 mm 7 m/S 664 mmHg 48%
    06:00 +26°C° 0 mm 7 m/S 665 mmHg 46%
    07:00 +27°C° 0 mm 8 m/S 665 mmHg 44%
    08:00 +28°C° 0 mm 8 m/S 666 mmHg 41%
    09:00 +29°C° 0 mm 8 m/S 666 mmHg 38%
    10:00 +32°C° 0 mm 8 m/S 666 mmHg 35%
    11:00 +34°C° 0 mm 8 m/S 667 mmHg 32%
    12:00 +35°C° 0 mm 8 m/S 666 mmHg 28%
    13:00 +38°C° 0 mm 7 m/S 665 mmHg 25%
    14:00 +39°C° 0 mm 6 m/S 665 mmHg 21%
    15:00 +39°C° 0 mm 6 m/S 664 mmHg 20%
    16:00 +39°C° 0 mm 5 m/S 663 mmHg 20%
    17:00 +39°C° 0 mm 5 m/S 663 mmHg 19%
    18:00 +36°C° 0 mm 4 m/S 663 mmHg 21%
    19:00 +35°C° 0 mm 4 m/S 663 mmHg 23%
    20:00 +34°C° 0 mm 4 m/S 663 mmHg 24%
    21:00 +33°C° 0 mm 4 m/S 663 mmHg 27%
    22:00 +32°C° 0 mm 4 m/S 663 mmHg 29%
    23:00 +30°C° 0 mm 5 m/S 663 mmHg 32%

    20 November, Dienstag

    Zeit Temperatur Niederschläge Wind Luftdruck Luftfeuchtigkeit
    00:00 +29°C° 0 mm 5 m/S 663 mmHg 36%
    01:00 +28°C° 0 mm 5 m/S 662 mmHg 39%
    02:00 +27°C° 0 mm 6 m/S 662 mmHg 43%
    03:00 +26°C° 0 mm 5 m/S 662 mmHg 48%
    04:00 +25°C° 0 mm 5 m/S 662 mmHg 52%
    05:00 +23°C° 0 mm 5 m/S 662 mmHg 57%
    06:00 +25°C° 0 mm 5 m/S 662 mmHg 53%
    07:00 +26°C° 0 mm 5 m/S 663 mmHg 50%
    08:00 +28°C° 0 mm 5 m/S 664 mmHg 46%
    09:00 +30°C° 0 mm 5 m/S 664 mmHg 39%
    10:00 +33°C° 0 mm 6 m/S 664 mmHg 32%
    11:00 +36°C° 0 mm 6 m/S 664 mmHg 25%
    12:00 +38°C° 0 mm 6 m/S 663 mmHg 22%
    13:00 +37°C° 0 mm 5 m/S 662 mmHg 20%
    14:00 +39°C° 0 mm 5 m/S 662 mmHg 17%
    15:00 +39°C° 0 mm 5 m/S 661 mmHg 16%
    16:00 +39°C° 0 mm 5 m/S 661 mmHg 16%
    17:00 +38°C° 0 mm 4 m/S 661 mmHg 16%
    18:00 +37°C° 0.1 mm 5 m/S 661 mmHg 17%
    19:00 +35°C° 0.1 mm 5 m/S 661 mmHg 19%
    20:00 +34°C° 0.1 mm 5 m/S 661 mmHg 21%
    21:00 +33°C° 0 mm 5 m/S 661 mmHg 19%
    22:00 +32°C° 0 mm 4 m/S 662 mmHg 18%
    23:00 +29°C° 0 mm 4 m/S 662 mmHg 16%

    21 November, Mittwoch

    Zeit Temperatur Niederschläge Wind Luftdruck Luftfeuchtigkeit
    00:00 +28°C° 0 mm 3 m/S 661 mmHg 15%
    01:00 +27°C° 0 mm 2 m/S 661 mmHg 14%
    02:00 +26°C° 0 mm 1 m/S 661 mmHg 13%
    03:00 +25°C° 0 mm 2 m/S 661 mmHg 13%
    04:00 +24°C° 0 mm 2 m/S 661 mmHg 13%
    05:00 +24°C° 0 mm 2 m/S 661 mmHg 14%
    06:00 +26°C° 0 mm 3 m/S 662 mmHg 13%
    07:00 +27°C° 0 mm 3 m/S 663 mmHg 13%
    08:00 +29°C° 0 mm 4 m/S 664 mmHg 13%
    09:00 +32°C° 0 mm 4 m/S 664 mmHg 12%
    10:00 +33°C° 0 mm 4 m/S 664 mmHg 11%
    11:00 +35°C° 0 mm 4 m/S 664 mmHg 10%
    12:00 +36°C° 0 mm 5 m/S 664 mmHg 10%
    13:00 +37°C° 0 mm 5 m/S 663 mmHg 10%
    14:00 +39°C° 0 mm 5 m/S 663 mmHg 9%
    15:00 +39°C° 0 mm 5 m/S 662 mmHg 9%
    16:00 +37°C° 0 mm 5 m/S 662 mmHg 9%
    17:00 +38°C° 0 mm 6 m/S 662 mmHg 10%
    18:00 +35°C° 0 mm 5 m/S 662 mmHg 10%
    19:00 +33°C° 0 mm 4 m/S 662 mmHg 11%
    20:00 +30°C° 0 mm 3 m/S 662 mmHg 12%
    21:00 +29°C° 0 mm 3 m/S 662 mmHg 12%
    22:00 +28°C° 0 mm 3 m/S 662 mmHg 13%
    23:00 +27°C° 0 mm 4 m/S 662 mmHg 13%

    22 November, Donnerstag

    Zeit Temperatur Niederschläge Wind Luftdruck Luftfeuchtigkeit
    00:00 +26°C° 0 mm 4 m/S 662 mmHg 13%
    01:00 +25°C° 0 mm 4 m/S 662 mmHg 14%
    02:00 +23°C° 0 mm 4 m/S 661 mmHg 15%
    03:00 +23°C° 0 mm 4 m/S 662 mmHg 17%
    04:00 +22°C° 0 mm 4 m/S 662 mmHg 18%
    05:00 +21°C° 0 mm 3 m/S 662 mmHg 19%
    06:00 +23°C° 0 mm 4 m/S 662 mmHg 21%
    07:00 +25°C° 0 mm 5 m/S 663 mmHg 22%
    08:00 +27°C° 0 mm 6 m/S 664 mmHg 24%
    09:00 +29°C° 0 mm 5 m/S 664 mmHg 24%
    10:00 +32°C° 0 mm 5 m/S 664 mmHg 25%
    11:00 +33°C° 0 mm 4 m/S 664 mmHg 25%
    12:00 +35°C° 0 mm 3 m/S 664 mmHg 22%
    13:00 +36°C° 0 mm 3 m/S 663 mmHg 19%
    14:00 +37°C° 0 mm 2 m/S 663 mmHg 16%
    15:00 +37°C° 0 mm 2 m/S 663 mmHg 15%
    16:00 +37°C° 0 mm 2 m/S 662 mmHg 15%
    17:00 +37°C° 0 mm 3 m/S 662 mmHg 14%
    18:00 +35°C° 0 mm 3 m/S 662 mmHg 18%
    19:00 +33°C° 0 mm 3 m/S 661 mmHg 21%
    20:00 +30°C° 0 mm 3 m/S 661 mmHg 25%
    21:00 +29°C° 0 mm 3 m/S 661 mmHg 28%
    22:00 +28°C° 0 mm 3 m/S 662 mmHg 32%
    23:00 +28°C° 0 mm 3 m/S 662 mmHg 35%
    Mehr zeigen